www.pogodaiklimat.ru

Погода и климат >> Архив погоды >> Алжир >> Мостаганем


ПОГОДА в Мостаганеме

  • Прогноз погоды в Мостаганеме
  • Монитор погоды в Мостаганеме

АРХИВ ПОГОДЫ в Мостаганеме

Время (UTC), дата Ветер
(напр.,м/с)
 
Видим.   Явления Облачность Т
(С)
Тd
(С)
f
(%)
Тe
(С)
Тes
(С)
Комфортность P
(гПа)
Po
(гПа)
Тmin
(С)
Tmax
(С)
R
(мм)
R24
(мм)
S
(см)
06 12.09 СВ 1 8000 м 4/1 800 м
[Cu med, cong Ac cast]
+15.4 +14.4 94 +16 +16 1019.7 1003.2 +15.3
09 12.09 СВ 3 8000 м 4/0
[Ac cast]
+20.5 +16.2 76 +24 +29 комфорт 1021.6 1005.3
12 12.09 С 2 8000 м 5/3 800 м
[Cu med, cong Ac cast]
+24.7 +16.7 61 +28 +37 душно 1020.7 1004.7
15 12.09 СЗ 3 10 км 6/0
[Ac cast]
+23.1 +18.3 74 +29 +33 очень
душно
1020.4 1004.3
18 12.09 СВ 4 10 км 4/3 800 м
[Cu med, cong Ac cast]
+22.1 +18.8 82 +27 +27 душно 1019.0 1002.9 +25.8
06 13.09 В 2 8000 м 5/1 600 м
[Cu med, cong Ac cast]
+19.4 +19.1 98 +23 +23 комфорт 1018.4 1002.1 +18.9 1
09 13.09 В 2 10 км 1/1 600 м
[Cu hum]
+23.8 +20.2 80 +29 +37 душно 1019.1 1003.0
12 13.09 СВ 4 10 км 5/0
[Ac cast Ci sp]
+28.1 +21.2 66 +35 +44 очень
душно
1018.5 1002.7
15 13.09 В 3 10 км 5/0
[Ci sp]
+30.2 +23.1 66 +40 +46 очень
душно
1016.4 1000.7
18 13.09 З 2 10 км ясно +26.6 +22.7 79 +35 +35 очень
душно
1016.0 1000.1 +30.8
06 14.09 штиль 0 4000 м дымка 3/3 480 м
[St]
+21.6 +21.4 99 +28 +28 очень
душно
1016.5 1000.4 +21.6
09 14.09 В 2 5000 м в посл. час туман 5/3 480 м
[Frnb Ac cast]
+24.8 +24.5 98 +35 +39 очень
душно
1016.9 1000.9
12 14.09 СЗ 2 8000 м гроза, ливневой дождь 4/4 800 м
[Cb cap]
+29.7 +25.1 76 +43 +53 опасность
перегрева
1015.0 999.3 0.0
15 14.09 З 4 7000 м гроза с градом 9/9 800 м
[Cb cap]
+27.1 +24.8 87 +39 +39 очень
душно
1012.6 996.8
18 14.09 Ю 2 7000 м гроза без осадков 6/6 800 м
[Cb cap]
+25.1 +24.4 96 +35 +35 очень
душно
1013.2 997.3 +31.4 1
06 15.09 штиль 0 8000 м ясно +22.0 +21.7 98 +29 +29 очень
душно
1016.0 999.9 +21.9 1
09 15.09 ЮЗ 2 8000 м ясно +26.3 +24.1 88 +37 +45 очень
душно
1016.4 1000.5
12 15.09 СЗ 4 8000 м ясно +26.6 +23.5 83 +36 +47 очень
душно
1016.2 1000.3
15 15.09 СЗ 3 10 км 5/3 800 м
[Cu med, cong Ac cast]
+25.9 +23.8 88 +35 +39 очень
душно
1015.3 999.4
18 15.09 СЗ 2 10 км 4/4 480 м
[Frnb]
+24.4 +23.1 92 +32 +32 очень
душно
1015.5 999.5 +27.9
06 16.09 Ю 2 8000 м 8/8 480 м
[Frnb]
+23.2 +22.6 96 +32 +32 очень
душно
1017.1 1001.0 +23.0
09 16.09 ЮЗ 2 8000 м 8/8 600 м
[Cu Sc]
+26.1 +22.2 79 +34 +35 очень
душно
1018.9 1003.0
12 16.09 СЗ 4 8000 м 3/3 600 м
[Cu hum]
+26.8 +23.4 82 +36 +44 очень
душно
1017.9 1002.0
15 16.09 СЗ 3 10 км 1/1 600 м
[Cu hum]
+27.6 +22.8 75 +37 +42 очень
душно
1016.6 1000.8
18 16.09 СЗ 3 10 км 1/1 600 м
[Cu hum]
+25.2 +23.3 89 +34 +34 очень
душно
1016.1 1000.2 +28.1
06 17.09 штиль 0 7000 м 3/0
[Ci fib]
+19.0 +18.8 99 +21 +21 комфорт 1016.4 1000.1 +18.9
09 17.09 В 2 7000 м 8/0
[Ac cast Ci sp]
+23.8 +22.4 92 +31 +37 очень
душно
1016.5 1000.5
12 17.09 СЗ 2 8000 м 8/0
[Ac cast Ci sp]
+28.9 +24.1 75 +40 +51 опасность
солнечного
удара
1014.8 999.1
15 17.09 С 5 8000 м 8/4 800 м
[Cu med, cong As trans]
+29.4 +22.4 66 +38 +40 очень
душно
1012.1 996.4
18 17.09 СВ 4 8000 м 4/0
[Ci fib]
+29.8 +22.5 65 +39 +39 очень
душно
1011.0 995.4 +31.7
06 18.09 ЮЗ 3 8000 м гроза, ливневой дождь 8/8 600 м
[Cb calv]
+23.0 +22.8 99 +32 +32 очень
душно
1013.5 997.5 +22.9 3
09 18.09 З 2 8000 м {гроза} 9/9 600 м
[Cu Sc]
+24.4 +23.7 96 +33 +34 очень
душно
1015.2 999.2
12 18.09 З 2 8000 м 8/8 600 м
[Cu med, cong]
+25.1 +23.8 93 +34 +37 очень
душно
1015.4 999.5 0.2
15 18.09 СЗ 3 8000 м 6/3 600 м
[Cu hum Ac cast]
+26.4 +23.3 83 +36 +39 очень
душно
1014.1 998.3
18 18.09 СЗ 2 8000 м 6/1 600 м
[Cu med, cong Ac cast]
+25.0 +22.8 88 +33 +33 очень
душно
1014.5 998.6 +26.6 0.2

 

Местоположение метеостанции Мостаганем (Алжир): широта 35.88 долгота 0.12 высота над уровнем моря 138 м.

В архиве по умолчанию представлена погода в Мостаганеме за последнюю неделю. Архивные данные за месяц целиком и за предыдущие месяцы, начиная с января 2011 года, Вы можете получить, выбрав интересующий диапазон дат из раскрывающегося списка и нажав кнопку "Ввод!".


*Определитесь, кто Вы:
робот инопланетянин человек

Внимание! Время в таблицах - всемирное. Для получения местного времени необходимо прибавить поправку, которая равна 1 ч.

Смотрите также архив погоды в соседних городах и на ближайших метеорологических станциях:

Погода в Арзеве (Алжир) (36 км)
Погода в Релизане (Алжир) (42 км)
Погода в Оран аэропорту (Алжир) (71 км)
Погода в Оране (Алжир) (72 км)
Погода в Оран-Тафрауи (Алжир) (73 км)
Погода в Грисе (Алжир) (73 км)
Погода в Сиди-Бель-Аббесе (Алжир) (101 км)
Погода в Саиде (Алжир) (112 км)
Погода в Шлефе (Алжир) (115 км)
Погода в Тенесе (Алжир) (129 км)

Пояснения к столбцам:

Ветер - указаны скорость ветра в м/с - средняя за 10 мин, порывы в срок и между сроками (в фигурных скобках) и направление, откуда дует ветер: С - северный, СВ - северо-восточный, В - восточный, ЮВ - юго-восточный, Ю - южный, ЮЗ - юго-западный, З - западный, СЗ - северо-западный.
Видимость - горизонтальная дальность видимости в метрах или километрах. При видимости от 1 до 10 км при отсутствии осадков обычно наблюдается дымка, при ухудшении видимости до 1 км и менее - туман. В сухую погоду видимость может ухудшаться дымом, пылью или мглою.
Явления - указаны атмосферные явления, наблюдавшиеся в срок или в последний час перед сроком; фигурными скобками обозначены явления, наблюдавшиеся между сроками (за 1-3 часа до срока); квадратными скобками обозначены град или гололедные отложения с указанием их диаметра в мм.
Облачность - указаны через наклонную черту общая и нижняя облачность в баллах и высота нижней границы облаков в метрах; квадратными скобками обозначены формы облаков: Ci - перистые, Cs - перисто-слоистые, Cc - перисто-кучевые, Ac - высококучевые, As - высокослоистые, Sc - слоисто-кучевые, Ns - слоисто-дождевые, Cu - кучевые, Cb - кучево-дождевые. Подробнее классификацию облаков см. в Атласе облаков (PDF).
T - Температура воздуха - температура, измеренная на высоте 2 м над землей.
Td - Температура точки росы - температура, при понижении до которой содержащийся в воздухе водяной пар достигнет насыщения.
f - Относительная влажность воздуха - влажноcть воздуха, измеренная на высоте 2 м над землей.
Te - Эффективная температура - температура, которую ощущает одетый по сезону человек в тени. Характеристика душности погоды. При расчете учитывается влияние влажности воздуха и скорости ветра на теплоощущения человека.
Tes - Эффективная температура на солнце - температура, которую ощущает человек, с поправкой на солнечный нагрев. Характеристика знойности погоды. Зависит от высоты солнца над горизонтом, облачности и скорости ветра. Ночью, в пасмурную погоду, а также при ветре 12 м/с и более поправка равна нулю.
P - Атмосферное давление - приведенное к уровню моря атмосферное давление.
Po - Атмосферное давление - измеренное на уровне метеостанции атмосферное давление.
Tmin - Минимальная температура - минимум температуры воздуха на высоте 2 м над землей.
Tmax - Максимальная температура - максимум температуры воздуха на высоте 2 м над землей.
R - Количество осадков - Количество выпавших осадков за период времени, мм. При наведении курсора мыши на число - период времени, за который выпало указанное количество осадков.
R24 - Количество осадков - Количество выпавших осадков за 24 часа, мм.
S - Снежный покров - Высота снежного покрова, см. При наведении курсора мыши на число - состояние снежного покрова и степень покрытия местности в баллах.